Voltar ao catálogo

STARLINK-4768

AtivoComunicaçõesVLEO
NORAD 53806·PAYLOAD·🇺🇸 United States

Lançado Sep 11, 2022 de Cape Canaveral Space Force Station

Loading…

Próximas Passagens (próximas 24 horas)

TLE

AtualizadoSource: CelesTrak SupGP

Época: Sep 15, 2026, 01:21 UTC

1 53806C 22111AK  26258.05673611  .00029099  00000+0  83251-3 0  2589
2 53806  53.1584 111.4787 0001254  80.7715 268.1227 15.35385100    19

Acompanhe STARLINK-4768 em tempo real com AllMySat

Download on the App Store